KD5OH Weather Reports


time (UTC)temp
C
wind
direction
speed
KPH
gust
KPH
rain 1hr
cm
rain 24hr
cm
rain mn
cm
humidity
%
barometer
mb
20260510160144 26 164 8.0 12.9 0.00 0.00 0.00 12 1018.2
20260510154639 26 184 8.0 12.9 0.00 0.00 0.00 13 1018.0
20260510153128 25 215 6.4 14.5 0.00 0.00 0.00 14 1017.8
20260510151658 24 97 8.0 12.9 0.00 0.00 0.00 15 1017.8
20260510150131 23 94 4.8 9.7 0.00 0.00 0.00 15 1017.9
20260510143134 22 55 4.8 11.3 0.00 0.00 0.00 16 1017.4
20260510141624 22 267 1.6 8.0 0.00 0.00 0.00 16 1017.1
20260510140134 21 299 12.9 20.9 0.00 0.00 0.00 17 1017.0
20260510134630 20 308 11.3 17.7 0.00 0.00 0.00 18 1017.0
20260510133201 19 341 8.0 25.7 0.00 0.00 0.00 20 1017.0
20260510131634 18 23 14.5 20.9 0.00 0.00 0.00 21 1016.4
20260510130124 18 272 6.4 11.3 0.00 0.00 0.00 23 1017.4
20260510124634 17 315 4.8 9.7 0.00 0.00 0.00 23 1016.8
20260510123151 17 1 8.0 12.9 0.00 0.00 0.00 21 1016.3
20260510121701 16 338 6.4 9.7 0.00 0.00 0.00 24 1016.1
20260510120136 16 322 3.2 4.8 0.00 0.00 0.00 24 1015.9
20260510114627 16 359 3.2 6.4 0.00 0.00 0.00 24 1016.0
20260510113121 16 35 3.2 6.4 0.00 0.00 0.00 25 1015.9
20260510111654 16 7 3.2 11.3 0.00 0.00 0.00 25 1015.7
20260510110125 13 335 1.6 4.8 0.00 0.00 0.00 30 1015.3
20260510104640 13 41 3.2 4.8 0.00 0.00 0.00 30 1015.3
20260510103129 13 106 3.2 12.9 0.00 0.00 0.00 30 1014.7
20260510101623 13 230 0.0 3.2 0.00 0.00 0.00 28 1014.5
20260510100133 13 277 0.0 1.6 0.00 0.00 0.00 28 1014.3
20260510094623 14 293 0.0 1.6 0.00 0.00 0.00 27 1014.1
20260510093138 14 293 0.0 1.6 0.00 0.00 0.00 27 1013.9
20260510091629 14 316 0.0 6.4 0.00 0.00 0.00 27 1013.8
20260510090123 15 341 3.2 6.4 0.00 0.00 0.00 26 1013.5
20260510084633 15 80 1.6 4.8 0.00 0.00 0.00 26 1013.3
20260510083127 16 263 0.0 4.8 0.00 0.00 0.00 25 1013.2
20260510081657 17 256 0.0 1.6 0.00 0.00 0.00 22 1013.2
20260510080126 17 131 0.0 4.8 0.00 0.00 0.00 21 1013.1
20260510074621 16 124 0.0 0.0 0.00 0.00 0.00 22 1013.2
20260510073130 17 293 0.0 3.2 0.00 0.00 0.00 21 1013.7
20260510071624 18 73 4.8 8.0 0.00 0.00 0.00 19 1013.7
20260510070135 19 114 1.6 4.8 0.00 0.00 0.00 18 1013.4
20260510064624 20 250 1.6 3.2 0.00 0.00 0.00 17 1013.6
20260510063140 21 168 1.6 6.4 0.00 0.00 0.00 15 1013.3
20260510061630 21 159 3.2 6.4 0.00 0.00 0.00 15 1013.3
20260510060146 22 159 3.2 6.4 0.00 0.00 0.00 14 1013.3
20260510054635 23 135 6.4 11.3 0.00 0.00 0.00 13 1013.3
20260510053145 23 118 8.0 11.3 0.00 0.00 0.00 12 1013.3
20260510051623 23 130 4.8 9.7 0.00 0.00 0.00 11 1013.3
20260510050133 24 135 4.8 11.3 0.00 0.00 0.00 11 1013.3
20260510044626 24 126 6.4 9.7 0.00 0.00 0.00 12 1013.5
20260510043137 24 135 3.2 11.3 0.00 0.00 0.00 12 1013.4
20260510041631 23 144 6.4 9.7 0.00 0.00 0.00 13 1013.4
20260510040141 23 144 3.2 8.0 0.00 0.00 0.00 13 1013.3
20260510034629 23 132 3.2 9.7 0.00 0.00 0.00 12 1013.1
20260510031622 22 119 3.2 6.4 0.00 0.00 0.00 14 1012.9
20260510030155 23 135 1.6 6.4 0.00 0.00 0.00 13 1012.8
20260510024627 24 125 3.2 6.4 0.00 0.00 0.00 12 1012.7
20260510023137 25 104 6.4 8.0 0.00 0.00 0.00 12 1012.3
20260510021630 26 112 4.8 6.4 0.00 0.00 0.00 11 1012.3
20260510020140 27 128 3.2 6.4 0.00 0.00 0.00 11 1012.2
20260510014629 28 122 3.2 6.4 0.00 0.00 0.00 9 1012.2
20260510013123 28 149 3.2 6.4 0.00 0.00 0.00 9 1012.0
20260510011631 30 116 1.6 9.7 0.00 0.00 0.00 9 1012.0
20260510010125 31 144 3.2 8.0 0.00 0.00 0.00 9 1011.9
20260510004635 31 114 6.4 9.7 0.00 0.00 0.00 9 1012.0
20260510003128 31 109 4.8 9.7 0.00 0.00 0.00 9 1012.1
20260510001659 32 101 6.4 11.3 0.00 0.00 0.00 9 1012.1
20260510000125 32 162 1.6 11.3 0.00 0.00 0.00 9 1012.3
20260509234639 32 132 1.6 11.3 0.00 0.00 0.00 9 1012.3
20260509233127 32 229 4.8 12.9 0.00 0.00 0.00 9 1012.6
20260509231621 32 152 1.6 6.4 0.00 0.00 0.00 9 1012.7
20260509230152 32 236 6.4 9.7 0.00 0.00 0.00 9 1012.8
20260509224701 32 252 3.2 9.7 0.00 0.00 0.00 9 1012.8
20260509223135 32 232 4.8 17.7 0.00 0.00 0.00 9 1013.0
20260509221625 32 54 6.4 11.3 0.00 0.00 0.00 9 1013.3
20260509220137 32 197 3.2 9.7 0.00 0.00 0.00 9 1013.5
20260509214630 32 262 1.6 16.1 0.00 0.00 0.00 9 1013.8
20260509213200 32 190 4.8 20.9 0.00 0.00 0.00 9 1014.1
20260509211633 32 220 1.6 16.1 0.00 0.00 0.00 9 1014.3
20260509210122 32 213 3.2 8.0 0.00 0.00 0.00 9 1014.4
20260509204636 31 234 8.0 14.5 0.00 0.00 0.00 9 1014.8
20260509203125 31 240 11.3 17.7 0.00 0.00 0.00 9 1015.2
20260509201633 31 256 1.6 14.5 0.00 0.00 0.00 9 1015.3
20260509200126 30 291 3.2 14.5 0.00 0.00 0.00 9 1015.4
20260509194635 30 257 3.2 12.9 0.00 0.00 0.00 9 1015.6
20260509193145 30 220 6.4 11.3 0.00 0.00 0.00 10 1015.8
20260509191639 30 206 11.3 17.7 0.00 0.00 0.00 10 1016.1
20260509190130 30 243 4.8 14.5 0.00 0.00 0.00 12 1016.2
20260509184624 30 160 6.4 12.9 0.00 0.00 0.00 12 1016.5
20260509183134 29 134 1.6 8.0 0.00 0.00 0.00 13 1016.7
20260509181626 28 15 1.6 9.7 0.00 0.00 0.00 12 1017.0
20260509180137 27 218 4.8 12.9 0.00 0.00 0.00 13 1017.1
20260509174626 27 164 6.4 12.9 0.00 0.00 0.00 14 1017.3
20260509173139 27 252 3.2 9.7 0.00 0.00 0.00 14 1017.4
20260509171648 26 299 1.6 9.7 0.00 0.00 0.00 15 1017.4
20260509170138 26 233 0.0 6.4 0.00 0.00 0.00 15 1017.4
20260509164630 26 232 4.8 16.1 0.00 0.00 0.00 16 1017.4
20260509163122 25 93 4.8 6.4 0.00 0.00 0.00 17 1017.5
20260509161635 25 73 1.6 6.4 0.00 0.00 0.00 17 1017.5